Change the Weather History Date:

Tuesday, December 25, 2012

  Actual Average Record
Temperature  
Mean Temperature 37 °F 33 °F  
Max Temperature 41 °F 40 °F 71 °F (1982)
Min Temperature 32 °F 25 °F -13 °F (1983)
Degree Days  
Heating Degree Days 28 32  
Month to date heating degree days 532 739  
Since 1 July heating degree days 1653 1787  
Cooling Degree Days 0 0  
Month to date cooling degree days 0 0  
Year to date cooling degree days 1141 814  
Moisture  
Dew Point 32 °F    
Average Humidity 85    
Maximum Humidity 93    
Minimum Humidity 76    
Precipitation  
Precipitation 0.00 in 0.09 in 0.89 in (1987)
Month to date precipitation 4.31 2.40  
Year to date precipitation 34.78 41.32  
Sea Level Pressure  
Sea Level Pressure 30.11 in    
Wind  
Wind Speed 5 mph (NNW)    
Max Wind Speed 13 mph    
Max Gust Speed 15 mph    
Visibility 9 miles    
Events      
T = Trace of Precipitation, MM = Missing Value Source: NWS Daily Summary

Daily Weather History Graph

Daily Weather History Graph

Search for Another Location

Airport or City:

Trip Planner

Search our weather history database for the weather conditions in past years. The results will help you decide how hot, cold, wet, or windy it might be!

Date:

Astronomy

Dec. 25, 2012 Rise Set
Actual Time 7:38 AM EST 5:01 PM EST
Civil Twilight 7:08 AM EST 5:31 PM EST
Nautical Twilight 6:34 AM EST 6:05 PM EST
Astronomical Twilight 6:01 AM EST 6:38 PM EST
Moon 3:08 PM EST (12/25) 5:09 AM EST (12/25)
Length of Visible Light 10h 23m
Length of Day
9h 22m
Waxing Gibbous, 93% of the Moon is Illuminated
Dec 25
Waxing Gibbous
Dec 28
Full
Jan 4
Last Quarter
Jan 11
New
Jan 18
First Quarter

Hourly Weather History & Observations

Time (EST) Temp. Windchill Dew Point Humidity Pressure Visibility Wind Dir Wind Speed Gust Speed Precip Events Conditions
12:27 AM 39.2 °F 34.2 °F 39.2 °F 100% 29.90 in 6.0 mi SW 6.9 mph - N/A   Overcast
12:53 AM 39.9 °F 35.8 °F 37.9 °F 93% 29.93 in 10.0 mi Variable 5.8 mph - N/A   Overcast
1:04 AM 39.2 °F 33.6 °F 37.4 °F 93% 29.91 in 10.0 mi WSW 8.1 mph - N/A   Overcast
1:53 AM 39.0 °F 34.8 °F 37.9 °F 96% 29.96 in 10.0 mi West 5.8 mph - N/A   Overcast
2:53 AM 39.0 °F 35.7 °F 36.0 °F 89% 29.99 in 10.0 mi West 4.6 mph - N/A   Overcast
3:53 AM 39.0 °F 34.8 °F 36.0 °F 89% 30.00 in 10.0 mi West 5.8 mph - N/A   Overcast
4:18 AM 37.4 °F 32.8 °F 35.6 °F 93% 29.99 in 10.0 mi West 5.8 mph - N/A   Overcast
4:53 AM 37.9 °F 35.5 °F 35.1 °F 89% 30.02 in 10.0 mi West 3.5 mph - N/A   Overcast
5:36 AM 37.4 °F 32.8 °F 33.8 °F 87% 30.02 in 10.0 mi West 5.8 mph - N/A   Overcast
5:53 AM 37.9 °F 35.5 °F 33.1 °F 83% 30.06 in 10.0 mi WNW 3.5 mph - N/A   Overcast
6:53 AM 37.0 °F 32.4 °F 30.0 °F 76% 30.09 in 10.0 mi West 5.8 mph - N/A   Overcast
7:53 AM 36.0 °F 32.1 °F 30.9 °F 82% 30.12 in 10.0 mi Variable 4.6 mph - N/A   Overcast
8:53 AM 36.0 °F - 30.9 °F 82% 30.13 in 10.0 mi Calm Calm - N/A   Overcast
9:53 AM 37.0 °F 34.5 °F 30.0 °F 76% 30.14 in 10.0 mi WNW 3.5 mph - N/A   Overcast
10:53 AM 37.0 °F - 30.9 °F 79% 30.18 in 10.0 mi Calm Calm - N/A   Overcast
11:53 AM 37.9 °F - 30.9 °F 76% 30.16 in 10.0 mi Calm Calm - N/A   Overcast
12:53 PM 37.9 °F - 32.0 °F 79% 30.16 in 10.0 mi Calm Calm - N/A   Overcast
1:35 PM 37.4 °F 30.8 °F 33.8 °F 87% 30.10 in 8.0 mi North 9.2 mph - N/A   Overcast
1:42 PM 37.4 °F 30.3 °F 33.8 °F 87% 30.09 in 8.0 mi North 10.4 mph - N/A   Overcast
1:51 PM 37.4 °F 29.8 °F 33.8 °F 87% 30.10 in 6.0 mi NNE 11.5 mph - N/A   Overcast
1:53 PM 37.0 °F 29.8 °F 33.1 °F 86% 30.13 in 6.0 mi NNE 10.4 mph - N/A   Overcast
1:59 PM 37.4 °F 30.8 °F 33.8 °F 87% 30.10 in 6.0 mi North 9.2 mph - N/A   Overcast
2:07 PM 37.4 °F 32.1 °F 33.8 °F 87% 30.11 in 7.0 mi North 6.9 mph - N/A   Overcast
2:46 PM 35.6 °F 31.7 °F 32.0 °F 87% 30.13 in 8.0 mi North 4.6 mph - N/A   Overcast
2:53 PM 36.0 °F 32.1 °F 32.0 °F 86% 30.15 in 8.0 mi NNE 4.6 mph - N/A   Overcast
3:32 PM 35.6 °F 29.2 °F 32.0 °F 87% 30.15 in 6.0 mi North 8.1 mph - N/A   Overcast
3:39 PM 35.6 °F 29.9 °F 32.0 °F 87% 30.15 in 6.0 mi North 6.9 mph - N/A   Overcast
3:51 PM 35.6 °F 29.9 °F 32.0 °F 87% 30.16 in 6.0 mi North 6.9 mph - N/A   Overcast
3:53 PM 36.0 °F 29.6 °F 32.0 °F 86% 30.19 in 6.0 mi North 8.1 mph - N/A   Overcast
4:53 PM 34.0 °F 27.2 °F 30.9 °F 89% 30.19 in 9.0 mi North 8.1 mph - N/A   Overcast
5:00 PM 33.8 °F 27.7 °F 30.2 °F 87% 30.16 in 10.0 mi North 6.9 mph - N/A   Overcast
5:53 PM 34.0 °F 28.0 °F 30.0 °F 85% 30.17 in 10.0 mi NNE 6.9 mph - N/A   Mostly Cloudy
6:53 PM 34.0 °F 28.0 °F 30.0 °F 85% 30.19 in 10.0 mi North 6.9 mph - N/A   Overcast
7:49 PM 33.8 °F 29.6 °F 28.4 °F 81% 30.16 in 10.0 mi NNE 4.6 mph - N/A   Scattered Clouds
7:53 PM 33.1 °F 30.0 °F 28.9 °F 85% 30.19 in 10.0 mi North 3.5 mph - N/A   Scattered Clouds
8:53 PM 32.0 °F 26.4 °F 28.9 °F 88% 30.20 in 9.0 mi North 5.8 mph - N/A   Overcast
9:53 PM 32.0 °F 24.8 °F 28.9 °F 88% 30.17 in 9.0 mi North 8.1 mph - N/A   Overcast
10:53 PM 33.1 °F 28.7 °F 28.9 °F 85% 30.19 in 10.0 mi North 4.6 mph - N/A   Overcast
11:53 PM 34.0 °F 28.8 °F 28.9 °F 82% 30.16 in 10.0 mi North 5.8 mph - N/A   Mostly Cloudy